Weather History for Dar Es Salaam, Tanzania

Change the Weather History Date:

Monday, March 17, 2014

  Actual Average Record
Temperature  
Mean Temperature 83 °F -  
Max Temperature 92 °F 83 °F 93 °F (1998)
Min Temperature 74 °F 74 °F 35 °F (2005)
Cooling Degree Days 18    
Growing Degree Days 33 (Base 50)    
Moisture  
Dew Point 77 °F    
Average Humidity 82    
Maximum Humidity 100    
Minimum Humidity 49    
Precipitation  
Precipitation 0.00 in 0.27 in - ()
Sea Level Pressure  
Sea Level Pressure 29.88 in    
Wind  
Wind Speed 3 mph ()    
Max Wind Speed 15 mph    
Max Gust Speed -    
Visibility 8.7 miles    
Events Fog    
Averages and records for this station are not official NWS values.
T = Trace of Precipitation, MM = Missing Value Source: Averaged Metar Reports

Daily Weather History Graph

Daily Weather History Graph

Search for Another Location

Airport:

Trip Planner

Search our weather history database for the weather conditions in past years. The results will help you decide how hot, cold, wet, or windy it might be!

Date:

Astronomy

Mar. 17, 2014 Rise Set
Actual Time 6:27 AM EAT 6:35 PM EAT
Civil Twilight 6:06 AM EAT 6:56 PM EAT
Nautical Twilight 5:42 AM EAT 7:20 PM EAT
Astronomical Twilight 5:18 AM EAT 7:44 PM EAT
Moon 7:07 PM EAT (3/17) 6:47 AM EAT (3/17)
Length of Visible Light 12h 49m
Length of Day
12h 07m
Full, 100% of the Moon is Illuminated
Mar 17
Full
Mar 24
Last Quarter
Mar 30
New
Apr 7
First Quarter
Apr 15
Full

Hourly Weather History & Observations

Time (EAT) Temp. Heat Index Dew Point Humidity Pressure Visibility Wind Dir Wind Speed Gust Speed Precip Events Conditions
12:00 AM 77 °F - 77 °F 100% 29.91 in 19 mi Calm Calm - -   Scattered Clouds
12:00 AM 77.0 °F - 77.0 °F 100% 29.89 in 6.2 mi Calm Calm - N/A   Partly Cloudy
1:00 AM 77.0 °F - 77.0 °F 100% 29.89 in 6.2 mi Calm Calm - N/A   Partly Cloudy
2:00 AM 77.0 °F - 77.0 °F 100% 29.89 in 6.2 mi Calm Calm - N/A   Partly Cloudy
3:00 AM 77.0 °F - 77.0 °F 100% 29.86 in 6.2 mi Calm Calm - N/A   Partly Cloudy
4:00 AM 77.0 °F - 77.0 °F 100% 29.86 in 6.2 mi Calm Calm - N/A   Partly Cloudy
5:00 AM 77.0 °F - 77.0 °F 100% 29.86 in 6.2 mi Calm Calm - N/A   Partly Cloudy
6:00 AM 75.2 °F - 75.2 °F 100% 29.89 in 1.2 mi Calm Calm - N/A   Partly Cloudy
7:00 AM 75.2 °F - 75.2 °F 100% 29.92 in - Calm Calm - N/A Fog Fog
8:00 AM 78.8 °F - 78.8 °F 100% 29.92 in 4.3 mi Calm Calm - N/A Fog Fog
9:00 AM 83 °F - 79 °F 84% 29.95 in 19 mi North 5.8 mph - -   Partly Cloudy
9:00 AM 82.4 °F 92.4 °F 78.8 °F 89% 29.95 in 6.2 mi North 8.1 mph - N/A   Scattered Clouds
10:00 AM 84.2 °F 94.1 °F 77.0 °F 79% 29.95 in 6.2 mi North 5.8 mph - N/A   Scattered Clouds
11:00 AM 86.0 °F 95.1 °F 75.2 °F 70% 29.92 in 6.2 mi North 3.5 mph - N/A   Partly Cloudy
12:00 PM 87 °F - 75 °F 60% 29.93 in 19 mi NNE 4.6 mph - -   Mostly Cloudy
12:00 PM 87.8 °F 97.6 °F 75.2 °F 66% 29.92 in 6.2 mi NNE 4.6 mph - N/A   Partly Cloudy
1:00 PM 89.6 °F 99.8 °F 75.2 °F 62% 29.86 in 6.2 mi North 11.5 mph - N/A   Partly Cloudy
2:00 PM 91.4 °F 102.5 °F 75.2 °F 59% 29.83 in 6.2 mi NNE 8.1 mph - N/A   Partly Cloudy
3:00 PM 91 °F - 74 °F 49% 29.83 in 19 mi North 15.0 mph - -   Partly Cloudy
3:00 PM 91.4 °F 102.5 °F 75.2 °F 59% 29.83 in 6.2 mi North 15.0 mph - N/A   Partly Cloudy
4:00 PM 89.6 °F 99.8 °F 75.2 °F 62% 29.80 in 6.2 mi North 11.5 mph - N/A   Partly Cloudy
5:00 PM 89.6 °F 99.8 °F 75.2 °F 62% 29.83 in 6.2 mi North 11.5 mph - N/A   Partly Cloudy
6:00 PM 86 °F - 77 °F 69% 29.84 in 19 mi NNE 8.1 mph - -   Scattered Clouds
6:00 PM 86.0 °F 96.9 °F 77.0 °F 74% 29.83 in 6.2 mi NNE 8.1 mph - N/A   Partly Cloudy
7:00 PM 82.4 °F 90.9 °F 77.0 °F 84% 29.83 in 6.2 mi ENE 5.8 mph - N/A   Mostly Cloudy
8:00 PM 82.4 °F 90.9 °F 77.0 °F 84% 29.83 in 6.2 mi ENE 5.8 mph - N/A   Mostly Cloudy
9:00 PM 81 °F - 78 °F 88% 29.88 in 19 mi Calm Calm - -   Scattered Clouds
10:00 PM 82.4 °F 92.4 °F 78.8 °F 89% 29.89 in 6.2 mi NNE 4.6 mph - N/A   Scattered Clouds
11:00 PM 80.6 °F 88.1 °F 78.8 °F 94% 29.89 in 6.2 mi NE 4.6 mph - N/A   Scattered Clouds